RH
36 38 35 32 35 40 49 53 52 49 41 47 41 44 40 34 37 34 18 17 18 20 20 19 20 25 47 37 37 42 43 45 43 46 48 54 61 62 54 44 41 36 31 31
49 48 44 44 51 52 52 54 55 49 43 46 45 44 41 41 40 34 30 18 21 20 20 20 19 19 28 28 30 37 40 47 48 48 47 55 66 73 73 67 56 48 40 36
49 48 53 55 55 57 57 56 54 54 47 48 50 48 44 41 37 36 36 33 29 28 25 22 20 21 21 24 26 30 40 50 54 62 65 61 66 73 64 59 66 66 54 45
60 55 58 61 61 59 58 54 56 55 57 57 56 61 55 52 42 41 37 35 33 30 30 30 28 25 24 22 32 46 56 59 64 66 67 70 75 88 66 67 76 74 62 54
62 63 68 69 65 65 64 61 62 63 60 62 63 59 53 50 49 45 39 36 34 32 32 30 31 31 27 23 34 48 53 60 66 66 76 80 100 78 70 68 78 82 72 62
71 70 67 59 59 60 65 69 70 68 68 70 62 57 53 50 48 44 42 41 38 34 30 29 30 30 30 29 32 45 59 64 68 77 97 100 100 90 68 92 97 95 78 68
76 75 69 72 62 62 68 83 88 80 81 74 55 57 54 57 53 50 47 44 41 37 33 32 30 30 30 31 37 68 77 94 98 100 100 100 100 91 63 68 84 94 90 82
91 88 78 75 69 69 60 67 88 86 86 72 58 60 53 57 60 57 50 49 48 43 39 35 31 37 52 80 100 100 100 100 100 100 98 98 100 92 70 70 74 84 82 85
69 81 56 62 55 72 78 71 69 78 78 90 64 73 71 70 66 64 61 56 54 49 48 42 50 85 100 100 100 98 100 99 98 96 95 96 90 95 75 88 78 79 86 88
63 76 59 52 51 70 82 65 81 91 97 97 92 71 62 72 76 74 68 67 65 65 58 63 73 87 94 99 99 98 98 98 97 68 84 85 94 90 90 80 70 70 93 100
62 71 59 51 58 64 86 75 75 93 88 92 93 73 72 70 71 74 77 72 68 67 61 56 56 74 67 79 76 75 86 88 93 77 96 97 89 88 81 89 88 83 91 94
76 69 77 59 54 48 57 59 59 74 99 98 98 76 72 84 83 79 84 84 71 68 73 58 60 60 60 58 52 59 71 94 90 84 79 80 95 100 93 86 85 86 90 94
66 74 66 66 61 52 50 45 56 67 76 95 96 91 78 78 82 74 74 81 76 71 64 64 65 52 39 42 47 50 69 76 80 83 82 81 79 73 79 94 99 95 96 97
87 86 67 63 57 58 56 54 55 61 65 72 84 74 76 86 80 69 63 71 58 68 58 66 65 45 44 51 58 61 58 63 66 68 66 67 73 68 66 65 63 69 89 92
97 95 93 84 90 86 85 93 91 74 67 86 79 79 66 44 51 53 46 68 61 54 66 58 52 48 49 56 64 53 47 41 45 55 67 47 46 60 72 72 68 68 90 91
98 96 94 96 92 90 94 88 78 74 59 49 46 40 32 26 36 46 44 46 49 50 47 43 46 51 53 50 52 58 57 51 47 48 49 52 52 47 51 80 89 90 95 95
95 96 99 94 78 86 97 65 64 57 47 40 39 24 22 27 34 40 32 31 38 40 43 50 52 47 44 49 55 57 65 62 60 55 52 52 58 58 60 72 90 100 100 99
100 98 94 90 78 92 56 45 39 38 42 45 36 22 26 28 35 39 36 40 46 44 45 47 48 47 45 48 52 56 65 64 58 42 44 42 46 45 45 55 62 71 82 89
89 96 98 95 87 71 65 45 50 54 40 32 30 28 26 31 38 26 30 42 45 37 33 37 47 48 44 47 57 62 57 59 47 35 28 30 26 19 23 34 53 68 79 80
74 87 100 99 94 90 56 55 57 54 61 52 51 40 32 39 44 24 26 39 42 42 41 39 42 46 47 53 59 56 50 30 19 23 16 7 6 8 12 19 33 60 54 52
99 99 97 98 97 88 70 69 67 73 67 66 59 65 61 53 41 33 40 49 52 46 43 40 41 43 52 55 54 48 26 13 15 7 6 7 6 8 10 16 31 62 66 64
91 96 97 100 96 94 90 90 86 93 84 71 66 61 56 52 49 44 39 47 52 50 45 42 39 43 55 56 48 22 8 7 7 7 9 9 9 9 13 27 39 44 58 73
53 53 71 85 75 76 99 98 96 93 92 96 79 64 67 56 48 48 43 42 50 51 51 49 48 54 56 48 30 10 6 4 5 7 9 11 12 14 22 33 48 64 73 85
76 64 68 35 34 39 49 52 81 90 86 89 94 84 82 73 64 56 59 52 49 49 53 55 54 50 38 26 13 7 6 6 10 14 14 14 13 19 37 48 56 96 100 100
41 47 30 52 42 32 18 12 13 17 33 37 69 83 77 82 81 73 64 54 51 48 51 47 41 23 15 12 10 7 8 12 16 18 18 18 19 28 47 58 77 98 99 97
7 8 32 28 11 12 7 12 20 32 12 25 40 80 75 64 72 76 71 64 60 48 50 37 21 9 10 13 12 14 18 18 19 25 42 45 35 41 58 72 84 84 92 96
Wind_Speed
27 35 45 39 37 34 33 33 35 33 26 33 30 27 20 20 22 21 24 24 23 24 23 30 30 29 32 33 35 32 31 27 25 25 25 25 25 25 32 36 34 32 30 29
34 43 39 34 30 31 34 33 33 33 24 26 29 33 25 22 25 21 25 29 26 30 31 32 33 33 37 37 36 37 35 32 29 27 22 23 25 25 28 32 36 36 34 32
42 45 27 30 28 31 36 33 31 34 25 28 32 36 31 27 28 30 31 32 33 31 32 35 37 36 37 39 40 41 37 36 34 33 31 28 30 28 24 25 31 38 38 36
38 43 41 33 30 28 33 23 23 25 30 26 22 10 20 24 29 31 30 31 33 37 39 40 40 42 38 40 40 40 39 38 36 35 36 35 33 22 23 23 28 35 37 36
43 31 23 33 38 35 38 28 27 22 21 27 28 19 7 12 15 31 34 32 30 30 33 44 44 40 39 41 42 42 40 41 39 40 42 38 23 19 20 24 29 33 35 34
44 39 24 23 20 22 23 17 23 25 22 17 18 16 28 23 17 21 26 30 32 29 28 30 38 37 41 43 45 44 42 42 43 46 39 28 19 17 20 19 22 28 30 30
44 50 49 42 32 22 24 17 5 5 6 11 13 19 37 20 18 19 23 22 21 22 22 24 28 35 38 43 45 47 47 44 43 37 30 22 14 15 17 17 21 25 28 29
22 17 46 44 53 46 40 34 14 6 4 4 10 10 16 15 20 21 23 24 25 23 24 25 25 20 22 30 36 38 40 29 18 15 12 10 11 17 15 15 21 25 29 32
8 16 15 22 18 44 41 39 38 23 15 4 7 5 9 16 16 14 11 11 11 13 6 16 17 7 8 20 26 21 9 9 14 12 17 17 15 19 16 17 20 22 23 26
16 12 16 13 12 22 43 27 23 20 7 6 7 11 17 27 22 16 14 13 14 19 21 15 14 13 14 17 20 26 32 34 28 31 30 24 17 21 22 23 23 24 23 25
29 21 11 14 14 21 32 29 17 21 9 4 2 7 14 22 22 20 14 11 10 7 7 10 13 25 32 36 37 37 37 31 24 27 20 20 22 21 24 24 25 24 24 25
37 18 33 27 16 22 28 25 35 16 8 10 3 6 7 9 12 13 13 11 13 13 12 7 7 11 15 23 28 23 19 17 16 16 18 18 19 19 21 23 23 25 27 28
19 20 23 15 28 25 22 28 28 29 17 18 6 5 15 17 20 22 24 25 23 24 21 15 15 18 21 20 18 19 15 16 18 19 15 14 13 15 15 17 20 25 28 31
13 17 15 15 11 24 20 22 22 26 18 12 21 8 17 22 21 21 21 28 29 24 28 29 27 26 21 18 17 14 15 15 16 18 19 15 14 12 12 14 17 19 18 19
15 13 20 27 20 19 12 12 18 23 20 12 23 24 35 32 30 31 33 31 34 30 29 27 27 21 17 17 14 13 7 9 13 16 16 12 11 12 13 14 13 13 14 18
20 14 20 25 23 22 26 29 30 29 32 36 37 41 44 40 37 34 33 33 34 31 27 23 21 18 17 15 13 13 11 11 14 14 15 16 16 15 16 17 19 19 18 19
28 29 21 22 29 19 14 41 42 40 40 38 36 40 35 28 25 18 23 25 26 19 15 19 20 20 16 17 16 16 16 16 16 18 18 19 19 21 21 22 20 23 23 24
26 29 28 25 24 10 37 42 44 38 36 36 37 34 33 28 24 21 25 24 25 24 21 21 22 21 15 16 17 19 20 22 23 21 20 21 22 21 20 20 21 23 23 21
36 32 21 18 23 27 18 33 29 27 34 32 35 36 30 28 26 26 28 31 30 27 22 20 21 19 18 16 17 21 22 24 25 20 18 18 18 18 18 20 21 21 22 23
26 31 35 24 10 9 37 38 37 28 27 25 21 25 24 25 28 30 24 26 24 20 21 22 21 21 20 18 20 21 25 27 20 16 17 18 19 20 21 23 24 25 25 25
12 21 33 31 13 13 29 15 10 19 14 13 16 14 18 24 28 25 29 26 26 24 24 23 22 23 23 23 23 26 26 21 18 19 20 21 22 25 26 27 28 29 29 26
10 7 11 16 17 17 21 20 18 18 24 22 19 20 22 21 21 26 25 27 29 28 28 23 22 23 25 25 25 24 22 23 22 23 24 25 27 28 29 29 30 31 33 30
18 24 21 11 14 14 13 11 25 24 21 26 33 34 30 28 25 20 20 23 29 28 30 26 26 27 27 26 25 25 25 25 25 27 29 30 29 28 28 27 27 28 26 25
24 25 28 32 39 38 38 33 29 28 31 34 34 30 27 29 31 32 27 25 21 23 27 28 29 28 27 24 24 25 27 28 28 29 30 30 30 29 27 25 25 21 21 22
40 39 43 42 43 42 42 40 40 37 36 38 37 39 34 29 29 21 22 26 25 26 28 27 28 24 21 24 25 26 26 28 30 31 31 31 30 30 28 25 19 20 22 22
46 48 49 53 46 47 46 41 33 29 32 27 29 39 35 40 34 31 20 29 29 28 23 25 22 21 21 22 23 25 27 28 31 32 31 30 28 27 26 24 23 22 22 24
Wind_Direction
257 248 247 263 275 278 276 278 280 281 284 287 281 291 289 268 290 290 238 242 251 263 278 273 265 261 251 255 255 259 262 262 260 255 254 255 262 269 268 263 260 258 257 258
250 249 256 265 256 261 268 272 275 283 284 286 295 292 285 281 280 267 267 254 256 254 263 268 261 263 257 258 261 258 260 257 257 256 262 262 261 263 271 266 261 260 260 260
249 257 261 252 251 256 259 262 276 280 295 287 300 293 289 285 275 270 267 257 255 255 254 258 257 266 271 263 262 260 262 256 258 259 260 265 266 266 281 280 270 262 260 259
254 252 250 245 245 250 259 255 276 290 292 277 295 290 280 274 278 274 267 263 262 256 256 257 258 257 263 267 259 253 253 254 256 259 262 267 263 268 284 273 264 259 258 259
237 246 237 239 249 249 255 261 274 278 286 281 268 271 300 191 250 277 282 276 273 264 258 257 261 264 261 258 259 249 248 254 257 261 260 260 256 269 275 274 265 256 255 255
241 245 230 238 232 229 239 239 252 264 275 264 244 233 279 267 265 274 274 276 277 271 262 263 258 256 252 254 258 250 245 246 250 254 253 249 248 264 279 274 270 264 259 258
237 240 242 240 236 225 221 237 282 264 196 255 250 232 246 265 266 261 262 268 277 281 274 268 265 262 254 248 250 242 239 238 240 236 241 248 266 270 272 276 268 263 260 258
224 253 240 236 235 230 221 226 200 205 207 284 199 233 246 247 244 243 252 272 281 279 273 273 272 263 260 252 240 223 217 216 220 229 265 269 290 276 278 279 272 263 255 253
233 249 252 249 258 235 225 227 231 244 257 299 232 234 209 208 219 225 236 255 270 282 289 254 262 265 176 200 190 202 222 276 297 281 299 302 285 304 301 299 288 282 273 263
240 267 254 232 220 225 221 235 209 203 191 209 230 220 216 210 214 224 240 251 276 290 289 285 277 262 254 219 267 279 295 305 321 303 324 314 278 275 283 285 281 276 269 261
231 232 232 216 206 200 206 221 207 209 222 179 169 240 219 224 226 242 250 259 273 272 299 311 279 269 290 295 304 311 318 324 317 320 296 295 288 280 278 273 273 273 272 268
230 237 241 236 243 218 204 215 218 203 198 222 203 262 208 218 222 235 240 244 237 255 268 208 251 284 291 298 305 302 310 312 309 305 303 304 292 280 276 271 270 271 272 271
215 218 232 239 231 226 219 226 227 222 220 209 176 228 204 218 236 250 248 243 251 267 258 238 267 299 291 283 274 274 288 303 317 314 308 304 297 291 289 292 287 281 275 267
205 220 216 231 223 219 219 217 214 222 208 202 215 206 206 214 237 260 274 267 280 276 288 288 292 293 288 269 265 272 284 292 297 295 297 297 295 299 302 304 299 290 291 291
241 241 250 242 257 262 256 218 216 235 239 235 247 262 269 275 264 265 277 260 271 278 278 271 268 273 275 264 266 274 271 301 302 294 290 291 291 291 296 301 307 317 305 308
244 248 258 268 264 266 267 255 247 264 266 269 269 272 280 282 276 270 271 270 261 263 266 258 254 257 267 273 266 270 265 277 282 276 275 282 284 284 278 277 282 284 290 300
247 256 259 257 267 256 244 258 257 260 264 262 261 274 285 279 279 276 269 262 259 240 238 232 244 258 272 285 273 279 278 276 275 280 273 277 276 276 278 284 282 285 289 280
225 233 241 250 263 238 262 267 266 266 268 266 272 274 268 271 274 269 250 253 248 241 241 246 246 252 271 268 267 270 271 277 283 281 274 270 268 274 280 284 285 283 281 282
244 235 241 230 235 249 253 252 251 250 265 272 271 270 264 268 273 257 250 245 246 243 253 262 266 260 267 266 260 262 275 278 279 270 264 258 264 269 273 277 279 278 274 274
241 245 234 240 232 238 257 265 260 253 263 283 274 259 252 258 261 264 271 258 248 251 257 259 255 255 263 260 261 270 284 284 263 252 247 256 265 270 273 276 278 278 274 274
214 229 232 244 264 231 238 245 218 196 229 239 233 236 263 270 265 279 275 268 257 260 262 259 254 257 257 256 261 275 273 253 243 247 259 265 269 272 272 275 275 273 271 267
241 245 232 235 240 252 243 233 230 226 221 228 221 217 236 246 247 264 275 261 260 259 257 256 255 254 245 251 266 266 245 245 248 252 260 266 267 268 268 270 272 271 269 270
251 251 260 263 246 258 231 244 292 280 264 253 245 243 255 256 248 247 261 265 257 258 247 253 252 242 246 259 263 245 242 248 255 259 263 265 266 267 267 269 272 269 267 267
254 258 264 272 262 268 271 278 288 289 287 283 280 249 238 243 246 242 257 264 252 249 246 243 242 246 259 253 244 246 253 259 264 266 268 269 268 267 266 271 273 265 265 267
273 273 270 268 268 271 275 281 283 285 282 282 278 264 258 251 245 252 239 247 245 248 231 245 251 252 245 245 248 253 261 266 268 269 270 270 269 266 266 268 268 259 260 262
266 268 269 273 279 285 283 285 290 279 278 269 268 262 249 255 251 253 235 245 241 232 238 251 242 239 244 250 255 262 266 269 274 277 278 275 270 266 263 262 258 260 259 261